Weather History for Lompoc, CA

Change the Weather History Date:

Saturday, August 3, 2013

  Actual Average Record
Temperature  
Mean Temperature 60 °F -  
Max Temperature 68 °F 74 °F 82 °F (1985)
Min Temperature 53 °F 54 °F 47 °F (1954)
Degree Days  
Heating Degree Days 4    
Growing Degree Days 10 (Base 50)    
Moisture  
Dew Point 51 °F    
Average Humidity 77    
Maximum Humidity 88    
Minimum Humidity 56    
Precipitation  
Precipitation 0.00 in - - ()
Sea Level Pressure  
Sea Level Pressure 30.01 in    
Wind  
Wind Speed 6 mph (West)    
Max Wind Speed 16 mph    
Max Gust Speed 21 mph    
Visibility 10 miles    
Events      
Averages and records for this station are not official NWS values.
T = Trace of Precipitation, MM = Missing Value Source: NWS Daily Summary

Daily Weather History Graph

Daily Weather History Graph

Search for Another Location

Airport:

Trip Planner

Search our weather history database for the weather conditions in past years. The results will help you decide how hot, cold, wet, or windy it might be!

Date:

Astronomy

Aug. 03, 2013 Rise Set
Actual Time 6:13 AM PDT 8:01 PM PDT
Civil Twilight 5:46 AM PDT 8:29 PM PDT
Nautical Twilight 5:12 AM PDT 9:02 PM PDT
Astronomical Twilight 4:37 AM PDT 9:37 PM PDT
Moon 3:28 AM PDT (8/3) 5:46 PM PDT (8/3)
Length of Visible Light 14h 43m
Length of Day
13h 48m
Waning Crescent, 9% of the Moon is Illuminated
Aug 3
Waning Crescent
Aug 6
New
Aug 14
First Quarter
Aug 20
Full
Aug 28
Last Quarter

Hourly Weather History & Observations

Time (PDT) Temp. Dew Point Humidity Pressure Visibility Wind Dir Wind Speed Gust Speed Precip Events Conditions
12:15 AM 55.4 °F 51.8 °F 88% 30.00 in 10.0 mi NW 4.6 mph - N/A   Overcast
12:35 AM 55.4 °F 51.8 °F 88% 30.00 in 10.0 mi West 3.5 mph - N/A   Overcast
12:55 AM 55.4 °F 51.8 °F 88% 30.00 in 10.0 mi WNW 5.8 mph - N/A   Overcast
1:15 AM 55.4 °F 51.8 °F 88% 29.99 in 10.0 mi WNW 3.5 mph - N/A   Overcast
1:35 AM 55.4 °F 51.8 °F 88% 30.00 in 10.0 mi West 3.5 mph - N/A   Overcast
1:55 AM 55.4 °F 51.8 °F 88% 30.00 in 10.0 mi WNW 6.9 mph - N/A   Overcast
2:15 AM 55.4 °F 51.8 °F 88% 29.99 in 10.0 mi West 3.5 mph - N/A   Overcast
2:35 AM 55.4 °F 51.8 °F 88% 30.00 in 10.0 mi West 4.6 mph - N/A   Overcast
2:55 AM 55.4 °F 51.8 °F 88% 29.99 in 10.0 mi West 5.8 mph - N/A   Overcast
3:15 AM 55.4 °F 51.8 °F 88% 29.99 in 10.0 mi West 5.8 mph - N/A   Overcast
3:35 AM 53.6 °F 50.0 °F 88% 29.99 in 10.0 mi West 5.8 mph - N/A   Overcast
3:55 AM 53.6 °F 50.0 °F 88% 29.99 in 10.0 mi West 5.8 mph - N/A   Overcast
4:15 AM 53.6 °F 50.0 °F 88% 29.99 in 10.0 mi WNW 5.8 mph - N/A   Overcast
4:35 AM 53.6 °F 50.0 °F 88% 29.99 in 10.0 mi West 3.5 mph - N/A   Overcast
4:55 AM 55.4 °F 51.8 °F 88% 29.99 in 10.0 mi West 4.6 mph - N/A   Overcast
5:15 AM 53.6 °F 50.0 °F 88% 29.99 in 10.0 mi North - - N/A   Overcast
5:35 AM 53.6 °F 50.0 °F 88% 30.00 in 10.0 mi WNW 5.8 mph - N/A   Overcast
5:55 AM 55.4 °F 50.0 °F 82% 30.00 in 10.0 mi Calm Calm - N/A   Overcast
6:15 AM 53.6 °F 50.0 °F 88% 30.01 in 10.0 mi WNW 6.9 mph - N/A   Overcast
6:35 AM 55.4 °F 50.0 °F 82% 30.01 in 10.0 mi West 3.5 mph - N/A   Overcast
6:55 AM 53.6 °F 50.0 °F 88% 30.02 in 10.0 mi NW 4.6 mph - N/A   Overcast
7:15 AM 55.4 °F 50.0 °F 82% 30.02 in 10.0 mi Calm Calm - N/A   Overcast
7:35 AM 55.4 °F 50.0 °F 82% 30.03 in 10.0 mi Calm Calm - N/A   Overcast
7:55 AM 55.4 °F 48.2 °F 77% 30.04 in 10.0 mi WNW 4.6 mph - N/A   Overcast
8:15 AM 55.4 °F 48.2 °F 77% 30.04 in 10.0 mi West 5.8 mph - N/A   Overcast
8:35 AM 55.4 °F 50.0 °F 82% 30.04 in 10.0 mi NW 4.6 mph - N/A   Overcast
8:55 AM 55.4 °F 50.0 °F 82% 30.04 in 10.0 mi WSW 4.6 mph - N/A   Overcast
9:15 AM 55.4 °F 50.0 °F 82% 30.04 in 10.0 mi West 9.2 mph - N/A   Overcast
9:35 AM 55.4 °F 50.0 °F 82% 30.04 in 10.0 mi West 5.8 mph - N/A   Overcast
9:55 AM 57.2 °F 50.0 °F 77% 30.03 in 10.0 mi West 4.6 mph - N/A   Overcast
10:15 AM 57.2 °F 50.0 °F 77% 30.03 in 10.0 mi WSW 3.5 mph - N/A   Overcast
10:35 AM 57.2 °F 51.8 °F 82% 30.03 in 10.0 mi West 4.6 mph - N/A   Overcast
10:55 AM 60.8 °F 51.8 °F 72% 30.03 in 10.0 mi West 4.6 mph - N/A   Overcast
11:15 AM 59.0 °F 50.0 °F 72% 30.03 in 10.0 mi WSW 3.5 mph - N/A   Overcast
11:35 AM 60.8 °F 51.8 °F 72% 30.03 in 10.0 mi West 6.9 mph - N/A   Scattered Clouds
11:55 AM 62.6 °F 51.8 °F 68% 30.03 in 10.0 mi WSW 5.8 mph - N/A   Clear
12:15 PM 64.4 °F 51.8 °F 64% 30.03 in 10.0 mi WSW 6.9 mph - N/A   Clear
12:35 PM 66.2 °F 51.8 °F 60% 30.02 in 10.0 mi WSW 9.2 mph - N/A   Clear
12:55 PM 66.2 °F 51.8 °F 60% 30.02 in 10.0 mi West 12.7 mph - N/A   Clear
1:15 PM 66.2 °F 51.8 °F 60% 30.02 in 10.0 mi West 12.7 mph - N/A   Clear
1:35 PM 66.2 °F 51.8 °F 60% 30.02 in 10.0 mi West 11.5 mph - N/A   Clear
1:55 PM 68.0 °F 51.8 °F 56% 30.02 in 10.0 mi West 12.7 mph - N/A   Clear
2:15 PM 66.2 °F 51.8 °F 60% 30.02 in 10.0 mi West 15.0 mph 20.7 mph N/A   Clear
2:35 PM 66.2 °F 51.8 °F 60% 30.02 in 10.0 mi West 15.0 mph - N/A   Clear
2:55 PM 66.2 °F 51.8 °F 60% 30.01 in 10.0 mi West 13.8 mph - N/A   Clear
3:15 PM 66.2 °F 51.8 °F 60% 30.01 in 10.0 mi West 13.8 mph 20.7 mph N/A   Clear
3:35 PM 66.2 °F 51.8 °F 60% 30.00 in 10.0 mi West 15.0 mph - N/A   Clear
3:55 PM 66.2 °F 51.8 °F 60% 30.00 in 10.0 mi West 15.0 mph 20.7 mph N/A   Clear
4:15 PM 64.4 °F 51.8 °F 64% 30.00 in 10.0 mi West 12.7 mph 19.6 mph N/A   Clear
4:35 PM 64.4 °F 51.8 °F 64% 30.00 in 10.0 mi West 16.1 mph 19.6 mph N/A   Clear
4:55 PM 64.4 °F 51.8 °F 64% 30.00 in 10.0 mi West 12.7 mph - N/A   Clear
5:15 PM 62.6 °F 51.8 °F 68% 29.99 in 10.0 mi West 13.8 mph 20.7 mph N/A   Clear
5:35 PM 62.6 °F 51.8 °F 68% 29.99 in 10.0 mi West 12.7 mph 18.4 mph N/A   Clear
5:55 PM 62.6 °F 51.8 °F 68% 29.99 in 10.0 mi West 11.5 mph 16.1 mph N/A   Clear
6:15 PM 60.8 °F 51.8 °F 72% 29.99 in 10.0 mi West 10.4 mph - N/A   Partly Cloudy
6:35 PM 60.8 °F 51.8 °F 72% 29.99 in 10.0 mi West 9.2 mph - N/A   Scattered Clouds
6:55 PM 60.8 °F 51.8 °F 72% 29.99 in 10.0 mi West 6.9 mph - N/A   Partly Cloudy
7:15 PM 60.8 °F 51.8 °F 72% 29.99 in 10.0 mi West 8.1 mph - N/A   Mostly Cloudy
7:35 PM 59.0 °F 51.8 °F 77% 29.98 in 10.0 mi West 5.8 mph - N/A   Overcast
7:55 PM 59.0 °F 51.8 °F 77% 29.99 in 10.0 mi West 6.9 mph - N/A   Overcast
8:15 PM 59.0 °F 51.8 °F 77% 29.99 in 10.0 mi NW 4.6 mph - N/A   Overcast
8:35 PM 59.0 °F 51.8 °F 77% 29.99 in 10.0 mi NW 5.8 mph - N/A   Overcast
8:55 PM 59.0 °F 51.8 °F 77% 30.00 in 10.0 mi WNW 4.6 mph - N/A   Overcast
9:15 PM 59.0 °F 51.8 °F 77% 30.00 in 10.0 mi NW 6.9 mph - N/A   Overcast
9:35 PM 59.0 °F 51.8 °F 77% 30.01 in 10.0 mi North 5.8 mph - N/A   Overcast
9:55 PM 57.2 °F 51.8 °F 82% 30.01 in 10.0 mi West 3.5 mph - N/A   Overcast
10:15 PM 59.0 °F 51.8 °F 77% 30.01 in 10.0 mi WNW 3.5 mph - N/A   Overcast
10:35 PM 57.2 °F 51.8 °F 82% 30.02 in 10.0 mi NNW 4.6 mph - N/A   Overcast
10:55 PM 57.2 °F 51.8 °F 82% 30.02 in 10.0 mi NNW 6.9 mph - N/A   Overcast
11:15 PM 57.2 °F 51.8 °F 82% 30.02 in 10.0 mi WNW 4.6 mph - N/A   Overcast
11:35 PM 57.2 °F 51.8 °F 82% 30.02 in 10.0 mi NW 3.5 mph - N/A   Overcast
11:55 PM 57.2 °F 51.8 °F 82% 30.02 in 10.0 mi North 5.8 mph - N/A   Overcast